Find Starlink 5546

NORAD ID: 55632 Int'l Des: 2023-021 Owner: SPXS Country: US Constellation: starlink operational
LEOCIRCULAR

当前视图

正在加载3D地球...

About Starlink 5546

Starlink 5546 (NORAD 55632) is a starlink constellation satellite (v1.5) launched Feb 17, 2023 by SPXS of US. It operates in LEO, CIRCULAR orbit with a mass of 305.00 kg.

关于 Starlink 5546

正在加载描述...

即将过境

Passes for default location (London). Set your location on the main map for personalized predictions.

高度历史

Loading altitude history...

两行轨道根数

1 55632U 23021E 26166.79791722 -.00000197 00000-0 -87070-5 0 9990
2 55632 69.9996 317.0971 0002946 266.5327 93.5495 14.98330256182996
Epoch: Jun 15, 2026 • Age: 16 hours

当前状态

高度 585.2 km
速度 7.57 km/s
星下点 68.00°N, 7.26°W
发射日期 Feb 17, 2023
运行时间 3.3 years
类型 internet

技术详情

分类 Payload
质量 305.00 kg
干质量 290.00 kg
总质量 305.00 kg
长度 0.20 m
直径 2.80 m
跨度 9.00 m
形状 Box + pan
制造商 SPXS
平台类型 Starlink
阶段状态 In Orbit
所有者/国家 SPXS/US

Most Searched